Powrót do katalogu

ONEWEB-0299

AktywnyŁącznośćPO
NORAD 49088·PAYLOAD·🇬🇧 United Kingdom

Wystrzelony Aug 21, 2021 z Baikonur Cosmodrome

Loading…

Następne Przeloty (najbliższe 24 godziny)

TLE

ŚwieżeSource: CelesTrak SupGP

Epoka: Sep 14, 2026, 21:31 UTC

1 49088C 21075P   26257.89701389 -.00001513  00000+0 -39014-2 0  2578
2 49088  87.9208 348.0405 0001919 107.7156   0.2358 13.17649174    18

Śledź ONEWEB-0299 w czasie rzeczywistym z AllMySat

Download on the App Store